"Sample Date","Sample Time","Sample Value","Units","Flow Rate","Sample Interval","Number Channels","Micron Size 0","Counts/Channel 0","Micron Size 1","Counts/Channel 1","Micron Size 2","Counts/Channel 2","Micron Size 3","Counts/Channel 3","Micron Size 4","Counts/Channel 4","Micron Size 5","Counts/Channel 5","Micron Size 6","Counts/Channel 6","Micron Size 7","Counts/Channel 7","Micron Size 8","Counts/Channel 8","Micron Size 9","Counts/Channel 9","Micron Size 10","Counts/Channel 10","Micron Size 11","Counts/Channel 11","Micron Size 12","Counts/Channel 12","Micron Size 13","Counts/Channel 13","Micron Size 14","Counts/Channel 14","Micron Size 15","Counts/Channel 15","Micron Size 16","Counts/Channel 16","Micron Size 17","Counts/Channel 17","Micron Size 18","Counts/Channel 18","Micron Size 19","Counts/Channel 19","Micron Size 20","Counts/Channel 20","Micron Size 21","Counts/Channel 21","Micron Size 22","Counts/Channel 22","Micron Size 23","Counts/Channel 23","Micron Size 24","Counts/Channel 24","Micron Size 25","Counts/Channel 25","Micron Size 26","Counts/Channel 26","Micron Size 27","Counts/Channel 27","Micron Size 28","Counts/Channel 28","Micron Size 29","Counts/Channel 29","Micron Size 30","Counts/Channel 30","Micron Size 31","Counts/Channel 31"
"03/12/08","18:00:02",193640.000,"cc",28291.313,6.00,6,0.100,175539.000,0.200,15171.000,0.300,1512.000,0.500,1002.000,1.000,416.000,5.000,0
"03/12/08","18:00:08",160240.000,"cc",28277.723,6.00,6,0.100,145603.000,0.200,12097.000,0.300,1247.000,0.500,943.000,1.000,350.000,5.000,0
"03/12/08","18:00:14",183931.000,"cc",28335.350,6.00,6,0.100,167398.000,0.200,13886.000,0.300,1339.000,0.500,944.000,1.000,364.000,5.000,0
"03/12/08","18:00:20",303074.000,"cc",28344.541,6.00,6,0.100,272757.000,0.200,26918.000,0.300,1938.000,0.500,1067.000,1.000,394.000,5.000,0
"03/12/08","18:00:26",133150.000,"cc",28265.006,6.00,6,0.100,120859.000,0.200,9648.000,0.300,1288.000,0.500,985.000,1.000,370.000,5.000,0
"03/12/08","18:00:32",176545.000,"cc",28325.545,6.00,6,0.100,159785.000,0.200,13775.000,0.300,1489.000,0.500,1049.000,1.000,447.000,5.000,0
"03/12/08","18:00:38",144550.000,"cc",28325.234,6.00,6,0.100,131285.000,0.200,10359.000,0.300,1350.000,0.500,1100.000,1.000,456.000,5.000,0
"03/12/08","18:00:44",96585.000,"cc",28317.246,6.00,6,0.100,87666.000,0.200,6471.000,0.300,1044.000,0.500,1015.000,1.000,389.000,5.000,0
"03/12/08","18:00:50",112480.000,"cc",28315.834,6.00,6,0.100,102090.000,0.200,7742.000,0.300,1173.000,0.500,1047.000,1.000,428.000,5.000,0
"03/12/08","18:00:56",164676.000,"cc",28314.824,6.00,6,0.100,150023.000,0.200,11877.000,0.300,1359.000,0.500,1043.000,1.000,374.000,5.000,0
"03/12/08","18:01:02",186126.000,"cc",28350.211,6.00,6,0.100,168139.000,0.200,15060.000,0.300,1483.000,0.500,1036.000,1.000,408.000,5.000,0
"03/12/08","18:01:08",354764.000,"cc",28347.848,6.00,6,0.100,316981.000,0.200,34192.000,0.300,2253.000,0.500,976.000,1.000,362.000,5.000,0
"03/12/08","18:01:14",226714.000,"cc",28286.918,6.00,6,0.100,205095.000,0.200,18906.000,0.300,1463.000,0.500,911.000,1.000,339.000,5.000,0
"03/12/08","18:01:20",161381.000,"cc",28265.514,6.00,6,0.100,146971.000,0.200,12007.000,0.300,1132.000,0.500,922.000,1.000,349.000,5.000,0
"03/12/08","18:01:26",239267.000,"cc",28343.063,6.00,6,0.100,216920.000,0.200,19398.000,0.300,1549.000,0.500,1037.000,1.000,363.000,5.000,0
"03/12/08","18:01:32",160284.000,"cc",28347.340,6.00,6,0.100,145853.000,0.200,12040.000,0.300,1141.000,0.500,922.000,1.000,328.000,5.000,0
"03/12/08","18:01:38",149156.000,"cc",28336.348,6.00,6,0.100,135777.000,0.200,10798.000,0.300,1157.000,0.500,1023.000,1.000,401.000,5.000,0
"03/12/08","18:01:44",118760.000,"cc",28254.627,6.00,6,0.100,107707.000,0.200,8386.000,0.300,1182.000,0.500,1059.000,1.000,426.000,5.000,0
"03/12/08","18:01:50",121926.000,"cc",28260.557,6.00,6,0.100,110825.000,0.200,8618.000,0.300,1124.000,0.500,970.000,1.000,389.000,5.000,0
"03/12/08","18:01:56",143236.000,"cc",28335.848,6.00,6,0.100,129999.000,0.200,10571.000,0.300,1248.000,0.500,1025.000,1.000,393.000,5.000,0
"03/12/08","18:02:02",157510.000,"cc",28273.777,6.00,6,0.100,142964.000,0.200,11614.000,0.300,1372.000,0.500,1131.000,1.000,429.000,5.000,0
"03/12/08","18:02:08",97903.000,"cc",28376.754,6.00,6,0.100,88834.000,0.200,6524.000,0.300,1025.000,0.500,1073.000,1.000,447.000,5.000,0
"03/12/08","18:02:14",81646.000,"cc",28337.305,6.00,6,0.100,74006.000,0.200,5230.000,0.300,980.000,0.500,1006.000,1.000,424.000,5.000,0
"03/12/08","18:02:20",95015.000,"cc",28333.238,6.00,6,0.100,86276.000,0.200,6318.000,0.300,1010.000,0.500,980.000,1.000,431.000,5.000,0
"03/12/08","18:02:26",108207.000,"cc",28270.035,6.00,6,0.100,98022.000,0.200,7493.000,0.300,1175.000,0.500,1109.000,1.000,408.000,5.000,0
"03/12/08","18:02:32",144818.000,"cc",28347.508,6.00,6,0.100,131334.000,0.200,10709.000,0.300,1290.000,0.500,1090.000,1.000,395.000,5.000,0
"03/12/08","18:02:38",199518.000,"cc",28295.650,6.00,6,0.100,179160.000,0.200,16961.000,0.300,1731.000,0.500,1155.000,1.000,511.000,5.000,0
"03/12/08","18:02:44",148321.000,"cc",28297.770,6.00,6,0.100,134042.000,0.200,11283.000,0.300,1401.000,0.500,1140.000,1.000,455.000,5.000,0
"03/12/08","18:02:50",200524.000,"cc",28280.770,6.00,6,0.100,180099.000,0.200,17225.000,0.300,1608.000,0.500,1142.000,1.000,450.000,5.000,0
"03/12/08","18:02:56",100521.000,"cc",28311.490,6.00,6,0.100,91316.000,0.200,6911.000,0.300,957.000,0.500,929.000,1.000,408.000,5.000,0
"03/12/08","18:03:02",91974.000,"cc",28322.742,6.00,6,0.100,83323.000,0.200,6319.000,0.300,1041.000,0.500,943.000,1.000,348.000,5.000,0
"03/12/08","18:03:08",80623.000,"cc",28331.354,6.00,6,0.100,72920.000,0.200,5344.000,0.300,986.000,0.500,996.000,1.000,377.000,5.000,0
"03/12/08","18:03:14",86078.000,"cc",28264.070,6.00,6,0.100,77923.000,0.200,5809.000,0.300,988.000,0.500,1007.000,1.000,351.000,5.000,0
"03/12/08","18:03:20",137147.000,"cc",28381.244,6.00,6,0.100,124422.000,0.200,10184.000,0.300,1135.000,0.500,1001.000,1.000,405.000,5.000,0
"03/12/08","18:03:26",77412.000,"cc",28336.395,6.00,6,0.100,70316.000,0.200,4988.000,0.300,848.000,0.500,872.000,1.000,388.000,5.000,0
"03/12/08","18:03:32",97636.000,"cc",28343.949,6.00,6,0.100,88352.000,0.200,6974.000,0.300,1024.000,0.500,908.000,1.000,378.000,5.000,0
"03/12/08","18:03:38",73684.000,"cc",28310.514,6.00,6,0.100,66880.000,0.200,4675.000,0.300,865.000,0.500,919.000,1.000,345.000,5.000,0
"03/12/08","18:03:44",72278.000,"cc",28299.180,6.00,6,0.100,65783.000,0.200,4533.000,0.300,808.000,0.500,834.000,1.000,320.000,5.000,0
"03/12/08","18:03:50",76577.000,"cc",28306.820,6.00,6,0.100,69655.000,0.200,4970.000,0.300,791.000,0.500,794.000,1.000,367.000,5.000,0
"03/12/08","18:03:56",45649.000,"cc",28353.262,6.00,6,0.100,41268.000,0.200,2513.000,0.300,698.000,0.500,818.000,1.000,352.000,5.000,0
"03/12/08","18:04:02",57056.000,"cc",28297.008,6.00,6,0.100,51448.000,0.200,3527.000,0.300,808.000,0.500,918.000,1.000,355.000,5.000,0
"03/12/08","18:04:08",28516.000,"cc",28355.066,6.00,6,0.100,25599.000,0.200,1183.000,0.300,591.000,0.500,807.000,1.000,336.000,5.000,0
"03/12/08","18:04:14",29861.000,"cc",28307.525,6.00,6,0.100,27046.000,0.200,1231.000,0.300,548.000,0.500,748.000,1.000,288.000,5.000,0
"03/12/08","18:04:20",27779.000,"cc",28288.412,6.00,6,0.100,24964.000,0.200,1103.000,0.300,581.000,0.500,807.000,1.000,324.000,5.000,0
"03/12/08","18:04:26",28111.000,"cc",28329.867,6.00,6,0.100,25321.000,0.200,1074.000,0.300,648.000,0.500,780.000,1.000,288.000,5.000,0
"03/12/08","18:04:32",27727.000,"cc",28337.049,6.00,6,0.100,25088.000,0.200,995.000,0.300,554.000,0.500,792.000,1.000,298.000,5.000,0
"03/12/08","18:04:38",27613.000,"cc",28288.082,6.00,6,0.100,24938.000,0.200,1086.000,0.300,558.000,0.500,746.000,1.000,285.000,5.000,0
"03/12/08","18:04:44",27542.000,"cc",28328.941,6.00,6,0.100,24804.000,0.200,1048.000,0.300,553.000,0.500,828.000,1.000,309.000,5.000,0
"03/12/08","18:04:50",27702.000,"cc",28287.945,6.00,6,0.100,25021.000,0.200,1065.000,0.300,566.000,0.500,740.000,1.000,310.000,5.000,0
"03/12/08","18:04:56",27783.000,"cc",28351.762,6.00,6,0.100,24938.000,0.200,1092.000,0.300,573.000,0.500,852.000,1.000,328.000,5.000,0
"03/12/08","18:05:02",27702.000,"cc",28301.647,6.00,6,0.100,25072.000,0.200,1024.000,0.300,583.000,0.500,708.000,1.000,315.000,5.000,0
"03/12/08","18:05:08",27494.000,"cc",28314.910,6.00,6,0.100,24826.000,0.200,1023.000,0.300,549.000,0.500,773.000,1.000,323.000,5.000,0
"03/12/08","18:05:14",27656.000,"cc",28331.336,6.00,6,0.100,24973.000,0.200,1053.000,0.300,545.000,0.500,768.000,1.000,317.000,5.000,0
"03/12/08","18:05:20",27337.000,"cc",28378.133,6.00,6,0.100,24669.000,0.200,1043.000,0.300,561.000,0.500,767.000,1.000,297.000,5.000,0
"03/12/08","18:05:26",27312.000,"cc",28295.867,6.00,6,0.100,24671.000,0.200,1009.000,0.300,571.000,0.500,768.000,1.000,293.000,5.000,0
"03/12/08","18:05:32",27653.000,"cc",28314.695,6.00,6,0.100,24927.000,0.200,1071.000,0.300,599.000,0.500,742.000,1.000,314.000,5.000,0
"03/12/08","18:05:38",27332.000,"cc",28353.359,6.00,6,0.100,24695.000,0.200,1043.000,0.300,543.000,0.500,753.000,1.000,298.000,5.000,0
"03/12/08","18:05:44",27218.000,"cc",28373.385,6.00,6,0.100,24572.000,0.200,1000.000,0.300,551.000,0.500,786.000,1.000,309.000,5.000,0
"03/12/08","18:05:50",27138.000,"cc",28317.691,6.00,6,0.100,24531.000,0.200,1026.000,0.300,536.000,0.500,729.000,1.000,316.000,5.000,0
"03/12/08","18:05:56",27254.000,"cc",28300.561,6.00,6,0.100,24635.000,0.200,1030.000,0.300,556.000,0.500,709.000,1.000,324.000,5.000,0
"03/12/08","18:06:02",27342.000,"cc",28341.895,6.00,6,0.100,24674.000,0.200,1017.000,0.300,546.000,0.500,817.000,1.000,288.000,5.000,0
"03/12/08","18:06:08",27225.000,"cc",28374.078,6.00,6,0.100,24545.000,0.200,1051.000,0.300,563.000,0.500,741.000,1.000,325.000,5.000,0
"03/12/08","18:06:14",27162.000,"cc",28297.359,6.00,6,0.100,24514.000,0.200,1033.000,0.300,534.000,0.500,752.000,1.000,329.000,5.000,0
"03/12/08","18:06:20",27115.000,"cc",28310.211,6.00,6,0.100,24381.000,0.200,1038.000,0.300,566.000,0.500,793.000,1.000,337.000,5.000,0
"03/12/08","18:06:26",27449.000,"cc",28324.217,6.00,6,0.100,24842.000,0.200,1040.000,0.300,548.000,0.500,725.000,1.000,294.000,5.000,0
"03/12/08","18:06:32",27124.000,"cc",28300.807,6.00,6,0.100,24473.000,0.200,1045.000,0.300,556.000,0.500,736.000,1.000,314.000,5.000,0
"03/12/08","18:06:38",27065.000,"cc",28285.711,6.00,6,0.100,24513.000,0.200,1007.000,0.300,468.000,0.500,710.000,1.000,367.000,5.000,0
"03/12/08","18:06:44",27335.000,"cc",28229.313,6.00,6,0.100,24759.000,0.200,1006.000,0.300,524.000,0.500,718.000,1.000,328.000,5.000,0
"03/12/08","18:06:50",27325.000,"cc",28347.656,6.00,6,0.100,24562.000,0.200,1077.000,0.300,618.000,0.500,750.000,1.000,318.000,5.000,0
"03/12/08","18:06:56",27297.000,"cc",28305.629,6.00,6,0.100,24637.000,0.200,996.000,0.300,580.000,0.500,745.000,1.000,339.000,5.000,0
"03/12/08","18:07:02",27398.000,"cc",28377.705,6.00,6,0.100,24650.000,0.200,1073.000,0.300,599.000,0.500,770.000,1.000,306.000,5.000,0
"03/12/08","18:07:08",27127.000,"cc",28327.982,6.00,6,0.100,24500.000,0.200,1026.000,0.300,550.000,0.500,761.000,1.000,290.000,5.000,0
"03/12/08","18:07:14",26995.000,"cc",28395.047,6.00,6,0.100,24373.000,0.200,1038.000,0.300,531.000,0.500,759.000,1.000,294.000,5.000,0
"03/12/08","18:07:20",26919.000,"cc",28337.957,6.00,6,0.100,24220.000,0.200,1087.000,0.300,560.000,0.500,742.000,1.000,310.000,5.000,0
"03/12/08","18:07:26",26960.000,"cc",28354.525,6.00,6,0.100,24318.000,0.200,1034.000,0.300,567.000,0.500,744.000,1.000,297.000,5.000,0
"03/12/08","18:07:32",26824.000,"cc",28244.051,6.00,6,0.100,24101.000,0.200,1029.000,0.300,580.000,0.500,771.000,1.000,343.000,5.000,0
"03/12/08","18:07:38",27537.000,"cc",28314.695,6.00,6,0.100,24857.000,0.200,1012.000,0.300,573.000,0.500,760.000,1.000,335.000,5.000,0
"03/12/08","18:07:44",27102.000,"cc",28382.143,6.00,6,0.100,24375.000,0.200,1072.000,0.300,538.000,0.500,790.000,1.000,327.000,5.000,0
"03/12/08","18:07:50",26960.000,"cc",28298.992,6.00,6,0.100,24146.000,0.200,1135.000,0.300,615.000,0.500,757.000,1.000,307.000,5.000,0
"03/12/08","18:07:56",26976.000,"cc",28252.398,6.00,6,0.100,24215.000,0.200,1079.000,0.300,543.000,0.500,794.000,1.000,345.000,5.000,0
"03/12/08","18:08:02",26839.000,"cc",28356.772,6.00,6,0.100,24254.000,0.200,1003.000,0.300,556.000,0.500,724.000,1.000,302.000,5.000,0
"03/12/08","18:08:08",26922.000,"cc",28264.645,6.00,6,0.100,24214.000,0.200,1069.000,0.300,578.000,0.500,756.000,1.000,305.000,5.000,0
"03/12/08","18:08:14",27069.000,"cc",28325.121,6.00,6,0.100,24428.000,0.200,978.000,0.300,580.000,0.500,772.000,1.000,311.000,5.000,0
"03/12/08","18:08:20",27310.000,"cc",28261.445,6.00,6,0.100,24480.000,0.200,1070.000,0.300,614.000,0.500,785.000,1.000,361.000,5.000,0
"03/12/08","18:08:26",27271.000,"cc",28346.357,6.00,6,0.100,24554.000,0.200,1101.000,0.300,547.000,0.500,779.000,1.000,290.000,5.000,0
"03/12/08","18:08:32",26964.000,"cc",28311.494,6.00,6,0.100,24293.000,0.200,1051.000,0.300,587.000,0.500,763.000,1.000,270.000,5.000,0
"03/12/08","18:08:38",26944.000,"cc",28332.783,6.00,6,0.100,24252.000,0.200,1024.000,0.300,581.000,0.500,768.000,1.000,319.000,5.000,0
"03/12/08","18:08:44",26922.000,"cc",28373.080,6.00,6,0.100,24213.000,0.200,1040.000,0.300,583.000,0.500,782.000,1.000,304.000,5.000,0
"03/12/08","18:08:50",26794.000,"cc",28336.986,6.00,6,0.100,24104.000,0.200,1017.000,0.300,595.000,0.500,759.000,1.000,319.000,5.000,0
"03/12/08","18:08:56",27088.000,"cc",28386.684,6.00,6,0.100,24412.000,0.200,1098.000,0.300,557.000,0.500,722.000,1.000,299.000,5.000,0
"03/12/08","18:09:02",27400.000,"cc",28380.133,6.00,6,0.100,24759.000,0.200,996.000,0.300,576.000,0.500,779.000,1.000,290.000,5.000,0
"03/12/08","18:09:08",26812.000,"cc",28346.959,6.00,6,0.100,24163.000,0.200,1017.000,0.300,540.000,0.500,765.000,1.000,327.000,5.000,0
"03/12/08","18:09:14",27133.000,"cc",28333.912,6.00,6,0.100,24388.000,0.200,998.000,0.300,619.000,0.500,823.000,1.000,305.000,5.000,0
"03/12/08","18:09:20",27133.000,"cc",28231.557,6.00,6,0.100,24331.000,0.200,1040.000,0.300,588.000,0.500,821.000,1.000,353.000,5.000,0
"03/12/08","18:09:26",27126.000,"cc",28392.303,6.00,6,0.100,24509.000,0.200,986.000,0.300,576.000,0.500,773.000,1.000,282.000,5.000,0
"03/12/08","18:09:32",26850.000,"cc",28326.988,6.00,6,0.100,24208.000,0.200,1068.000,0.300,513.000,0.500,752.000,1.000,309.000,5.000,0
"03/12/08","18:09:38",27164.000,"cc",28308.475,6.00,6,0.100,24532.000,0.200,1005.000,0.300,546.000,0.500,782.000,1.000,299.000,5.000,0
"03/12/08","18:09:44",27113.000,"cc",28284.031,6.00,6,0.100,24410.000,0.200,1030.000,0.300,588.000,0.500,814.000,1.000,271.000,5.000,0
"03/12/08","18:09:50",26856.000,"cc",28267.051,6.00,6,0.100,24250.000,0.200,1045.000,0.300,537.000,0.500,713.000,1.000,311.000,5.000,0
"03/12/08","18:09:56",26788.000,"cc",28289.283,6.00,6,0.100,24127.000,0.200,1034.000,0.300,581.000,0.500,759.000,1.000,287.000,5.000,0
"03/12/08","18:10:02",26912.000,"cc",28350.342,6.00,6,0.100,24245.000,0.200,1032.000,0.300,554.000,0.500,793.000,1.000,288.000,5.000,0
"03/12/08","18:10:08",26804.000,"cc",28365.291,6.00,6,0.100,24210.000,0.200,1035.000,0.300,516.000,0.500,749.000,1.000,294.000,5.000,0
"03/12/08","18:10:14",26903.000,"cc",28317.908,6.00,6,0.100,24303.000,0.200,936.000,0.300,570.000,0.500,762.000,1.000,332.000,5.000,0
"03/12/08","18:10:20",26600.000,"cc",28290.496,6.00,6,0.100,24019.000,0.200,975.000,0.300,554.000,0.500,748.000,1.000,304.000,5.000,0
"03/12/08","18:10:26",26741.000,"cc",28338.766,6.00,6,0.100,24216.000,0.200,996.000,0.300,521.000,0.500,719.000,1.000,289.000,5.000,0
"03/12/08","18:10:32",27063.000,"cc",28266.658,6.00,6,0.100,24398.000,0.200,1067.000,0.300,534.000,0.500,763.000,1.000,301.000,5.000,0
"03/12/08","18:10:38",26616.000,"cc",28373.148,6.00,6,0.100,24019.000,0.200,1005.000,0.300,568.000,0.500,722.000,1.000,302.000,5.000,0
"03/12/08","18:10:44",26900.000,"cc",28358.256,6.00,6,0.100,24197.000,0.200,1066.000,0.300,559.000,0.500,747.000,1.000,331.000,5.000,0
"03/12/08","18:10:50",26397.000,"cc",28272.533,6.00,6,0.100,23826.000,0.200,999.000,0.300,548.000,0.500,726.000,1.000,298.000,5.000,0
"03/12/08","18:10:56",26889.000,"cc",28318.471,6.00,6,0.100,24366.000,0.200,992.000,0.300,508.000,0.500,726.000,1.000,297.000,5.000,0
"03/12/08","18:11:02",26600.000,"cc",28336.541,6.00,6,0.100,23972.000,0.200,984.000,0.300,584.000,0.500,756.000,1.000,304.000,5.000,0
"03/12/08","18:11:08",26617.000,"cc",28295.731,6.00,6,0.100,24015.000,0.200,1033.000,0.300,574.000,0.500,704.000,1.000,291.000,5.000,0
"03/12/08","18:11:14",26761.000,"cc",28292.115,6.00,6,0.100,24176.000,0.200,1012.000,0.300,530.000,0.500,728.000,1.000,315.000,5.000,0
"03/12/08","18:11:20",26827.000,"cc",28305.723,6.00,6,0.100,24305.000,0.200,989.000,0.300,536.000,0.500,723.000,1.000,274.000,5.000,0
"03/12/08","18:11:26",26897.000,"cc",28320.195,6.00,6,0.100,24248.000,0.200,1006.000,0.300,553.000,0.500,804.000,1.000,286.000,5.000,0
"03/12/08","18:11:32",26607.000,"cc",28350.547,6.00,6,0.100,24079.000,0.200,939.000,0.300,533.000,0.500,793.000,1.000,263.000,5.000,0
"03/12/08","18:11:38",26454.000,"cc",28393.252,6.00,6,0.100,23864.000,0.200,993.000,0.300,569.000,0.500,728.000,1.000,300.000,5.000,0
"03/12/08","18:11:44",26865.000,"cc",28301.891,6.00,6,0.100,24247.000,0.200,1017.000,0.300,551.000,0.500,748.000,1.000,302.000,5.000,0
"03/12/08","18:11:50",26405.000,"cc",28270.361,6.00,6,0.100,23752.000,0.200,1009.000,0.300,592.000,0.500,754.000,1.000,298.000,5.000,0
"03/12/08","18:11:56",26738.000,"cc",28271.391,6.00,6,0.100,24174.000,0.200,983.000,0.300,556.000,0.500,725.000,1.000,300.000,5.000,0
"03/12/08","18:12:02",26553.000,"cc",28331.383,6.00,6,0.100,23901.000,0.200,1012.000,0.300,559.000,0.500,784.000,1.000,297.000,5.000,0
"03/12/08","18:12:08",26837.000,"cc",28369.596,6.00,6,0.100,24238.000,0.200,968.000,0.300,558.000,0.500,766.000,1.000,307.000,5.000,0
"03/12/08","18:12:14",26636.000,"cc",28317.627,6.00,6,0.100,24057.000,0.200,986.000,0.300,534.000,0.500,749.000,1.000,310.000,5.000,0
"03/12/08","18:12:20",26558.000,"cc",28294.928,6.00,6,0.100,23928.000,0.200,1025.000,0.300,561.000,0.500,754.000,1.000,290.000,5.000,0
"03/12/08","18:12:26",26851.000,"cc",28330.635,6.00,6,0.100,24180.000,0.200,1028.000,0.300,598.000,0.500,746.000,1.000,299.000,5.000,0
"03/12/08","18:12:32",26486.000,"cc",28272.494,6.00,6,0.100,23849.000,0.200,994.000,0.300,555.000,0.500,784.000,1.000,304.000,5.000,0
"03/12/08","18:12:38",27247.000,"cc",28311.811,6.00,6,0.100,24544.000,0.200,1038.000,0.300,589.000,0.500,782.000,1.000,294.000,5.000,0
"03/12/08","18:12:44",26709.000,"cc",28304.604,6.00,6,0.100,24161.000,0.200,999.000,0.300,520.000,0.500,734.000,1.000,295.000,5.000,0
"03/12/08","18:12:50",26748.000,"cc",28383.092,6.00,6,0.100,24064.000,0.200,1024.000,0.300,568.000,0.500,770.000,1.000,322.000,5.000,0
"03/12/08","18:12:56",26929.000,"cc",28293.756,6.00,6,0.100,24258.000,0.200,984.000,0.300,569.000,0.500,785.000,1.000,333.000,5.000,0
"03/12/08","18:13:02",26539.000,"cc",28261.674,6.00,6,0.100,23878.000,0.200,1021.000,0.300,562.000,0.500,775.000,1.000,303.000,5.000,0
"03/12/08","18:13:08",26752.000,"cc",28409.361,6.00,6,0.100,24090.000,0.200,1028.000,0.300,568.000,0.500,755.000,1.000,311.000,5.000,0
"03/12/08","18:13:14",26526.000,"cc",28305.342,6.00,6,0.100,23832.000,0.200,1100.000,0.300,558.000,0.500,716.000,1.000,320.000,5.000,0
"03/12/08","18:13:20",26678.000,"cc",28297.115,6.00,6,0.100,24026.000,0.200,1050.000,0.300,535.000,0.500,747.000,1.000,320.000,5.000,0
"03/12/08","18:13:26",26864.000,"cc",28353.311,6.00,6,0.100,24200.000,0.200,1039.000,0.300,609.000,0.500,745.000,1.000,271.000,5.000,0
"03/12/08","18:13:32",26820.000,"cc",28245.086,6.00,6,0.100,24107.000,0.200,1038.000,0.300,594.000,0.500,762.000,1.000,319.000,5.000,0
"03/12/08","18:13:38",27007.000,"cc",28366.592,6.00,6,0.100,24328.000,0.200,995.000,0.300,602.000,0.500,792.000,1.000,290.000,5.000,0
"03/12/08","18:13:44",26953.000,"cc",28306.885,6.00,6,0.100,24234.000,0.200,1090.000,0.300,556.000,0.500,753.000,1.000,320.000,5.000,0
"03/12/08","18:13:50",26696.000,"cc",28321.688,6.00,6,0.100,24067.000,0.200,1058.000,0.300,532.000,0.500,726.000,1.000,313.000,5.000,0
"03/12/08","18:13:56",26678.000,"cc",28263.891,6.00,6,0.100,23967.000,0.200,1043.000,0.300,547.000,0.500,818.000,1.000,303.000,5.000,0
"03/12/08","18:14:02",26803.000,"cc",28314.469,6.00,6,0.100,24121.000,0.200,1068.000,0.300,555.000,0.500,749.000,1.000,310.000,5.000,0
"03/12/08","18:14:08",26779.000,"cc",28271.863,6.00,6,0.100,24171.000,0.200,978.000,0.300,553.000,0.500,784.000,1.000,293.000,5.000,0
"03/12/08","18:14:14",26545.000,"cc",28367.090,6.00,6,0.100,24047.000,0.200,927.000,0.300,547.000,0.500,726.000,1.000,298.000,5.000,0
"03/12/08","18:14:20",26670.000,"cc",28365.400,6.00,6,0.100,24005.000,0.200,1023.000,0.300,564.000,0.500,768.000,1.000,310.000,5.000,0
"03/12/08","18:14:26",26722.000,"cc",28282.729,6.00,6,0.100,24167.000,0.200,957.000,0.300,574.000,0.500,712.000,1.000,312.000,5.000,0
"03/12/08","18:14:32",26893.000,"cc",28349.018,6.00,6,0.100,24218.000,0.200,1016.000,0.300,571.000,0.500,769.000,1.000,319.000,5.000,0
"03/12/08","18:14:38",26412.000,"cc",28322.422,6.00,6,0.100,23801.000,0.200,1042.000,0.300,520.000,0.500,744.000,1.000,305.000,5.000,0
"03/12/08","18:14:44",26576.000,"cc",28246.787,6.00,6,0.100,23954.000,0.200,1004.000,0.300,584.000,0.500,744.000,1.000,290.000,5.000,0
"03/12/08","18:14:50",26775.000,"cc",28318.365,6.00,6,0.100,24084.000,0.200,1030.000,0.300,580.000,0.500,766.000,1.000,315.000,5.000,0
"03/12/08","18:14:56",26631.000,"cc",28344.248,6.00,6,0.100,23946.000,0.200,1019.000,0.300,610.000,0.500,752.000,1.000,304.000,5.000,0
"03/12/08","18:15:02",26910.000,"cc",28308.621,6.00,6,0.100,24226.000,0.200,1049.000,0.300,572.000,0.500,741.000,1.000,322.000,5.000,0
"03/12/08","18:15:08",26771.000,"cc",28325.701,6.00,6,0.100,24129.000,0.200,1013.000,0.300,567.000,0.500,790.000,1.000,272.000,5.000,0
"03/12/08","18:15:14",26828.000,"cc",28393.592,6.00,6,0.100,24162.000,0.200,1035.000,0.300,582.000,0.500,756.000,1.000,293.000,5.000,0
"03/12/08","18:15:20",26604.000,"cc",28313.074,6.00,6,0.100,23988.000,0.200,1001.000,0.300,545.000,0.500,769.000,1.000,301.000,5.000,0
"03/12/08","18:15:26",26830.000,"cc",28317.606,6.00,6,0.100,24171.000,0.200,988.000,0.300,598.000,0.500,745.000,1.000,328.000,5.000,0
"03/12/08","18:15:32",26616.000,"cc",28347.457,6.00,6,0.100,23934.000,0.200,1023.000,0.300,541.000,0.500,812.000,1.000,306.000,5.000,0
"03/12/08","18:15:38",26719.000,"cc",28300.508,6.00,6,0.100,24093.000,0.200,1033.000,0.300,588.000,0.500,703.000,1.000,302.000,5.000,0
"03/12/08","18:15:44",26479.000,"cc",28407.576,6.00,6,0.100,23951.000,0.200,1016.000,0.300,535.000,0.500,694.000,1.000,283.000,5.000,0
"03/12/08","18:15:50",26433.000,"cc",28281.508,6.00,6,0.100,23850.000,0.200,963.000,0.300,584.000,0.500,711.000,1.000,325.000,5.000,0
"03/12/08","18:15:56",26752.000,"cc",28334.596,6.00,6,0.100,24118.000,0.200,1020.000,0.300,531.000,0.500,792.000,1.000,291.000,5.000,0
"03/12/08","18:16:02",26526.000,"cc",28273.041,6.00,6,0.100,23995.000,0.200,970.000,0.300,530.000,0.500,729.000,1.000,302.000,5.000,0
"03/12/08","18:16:08",26633.000,"cc",28241.650,6.00,6,0.100,24105.000,0.200,1037.000,0.300,503.000,0.500,708.000,1.000,280.000,5.000,0
"03/12/08","18:16:14",26591.000,"cc",28313.795,6.00,6,0.100,24047.000,0.200,949.000,0.300,567.000,0.500,714.000,1.000,314.000,5.000,0
"03/12/08","18:16:20",26406.000,"cc",28296.522,6.00,6,0.100,23952.000,0.200,939.000,0.300,550.000,0.500,693.000,1.000,272.000,5.000,0
"03/12/08","18:16:26",26132.000,"cc",28415.873,6.00,6,0.100,23647.000,0.200,983.000,0.300,530.000,0.500,689.000,1.000,283.000,5.000,0
"03/12/08","18:16:32",25992.000,"cc",28274.356,6.00,6,0.100,23401.000,0.200,994.000,0.300,535.000,0.500,770.000,1.000,292.000,5.000,0